Tracking 20041 objects as of 22-Nov-2019
Live streaming from Space Station
objects crossing your sky now

PW-SAT2

Track PW-SAT2 now!
10-day predictions


NORAD ID: 43814
Int'l Code: 2018-099BJ
Perigee: 553.6 km
Apogee: 569.9 km
Inclination: 97.8 °
Period: 95.7 minutes
Semi major axis: 6932 km
RCS: Unknown
Launch date: December 3, 2018
Source: POLAND (POL)
Launch site: AIR FORCE WESTERN TEST RANGE (AFWTR)
aabbcc
Your satellite tracking list
Your tracking list is empty




NASA's NSSDC Master Catalog

Two Line Element Set (TLE):
1 43814U 18099BJ  19326.83673795  .00016371  00000-0  11863-2 0  9995
2 43814  97.7736  39.9729 0011795 164.8088 195.3498 15.03982083 52430
Source of the keplerian elements: AFSPC